Total_Precipitation_Accumulation
0.00 0.01 0.02 0.04 0.07 0.12 0.13 0.15 0.20 0.20 0.22 0.28 0.39 0.60 0.81 0.92 1.10 1.23 1.22 1.35 1.74 2.15 2.45 2.73 2.87 3.10 3.42 3.73 4.01 4.31 4.78 5.03 4.87 4.85 4.73 4.55 4.22 4.05 3.70 3.27 2.92 2.87 2.87 3.11
0.01 0.01 0.02 0.02 0.04 0.08 0.09 0.12 0.17 0.20 0.23 0.30 0.35 0.57 0.78 0.80 1.00 1.13 1.24 1.42 1.58 1.79 2.27 2.54 2.56 2.80 3.03 3.56 4.06 4.41 4.44 4.39 4.21 4.41 4.74 4.94 4.84 4.31 3.71 3.36 3.20 2.84 2.79 2.92
0.02 0.03 0.02 0.02 0.03 0.04 0.10 0.13 0.18 0.20 0.23 0.35 0.45 0.89 1.01 0.90 0.98 1.07 1.15 1.33 1.47 1.64 1.83 2.14 2.17 2.27 2.49 2.99 3.51 3.65 3.53 3.48 3.36 3.48 3.85 4.12 4.38 4.12 3.78 3.46 3.17 2.82 2.73 2.71
0.01 0.02 0.02 0.03 0.03 0.03 0.07 0.09 0.10 0.15 0.27 0.48 0.54 1.02 1.24 1.23 1.29 1.14 1.15 1.21 1.47 1.63 1.67 1.83 1.89 1.94 2.00 2.13 2.38 2.58 2.78 2.88 2.89 2.95 3.17 3.38 3.59 3.62 3.54 3.45 3.12 2.80 2.52 2.49
0.02 0.02 0.03 0.05 0.05 0.04 0.06 0.07 0.09 0.15 0.26 0.47 0.51 0.73 1.22 1.47 1.49 1.24 1.17 1.17 1.31 1.33 1.41 1.55 1.63 1.64 1.69 1.84 2.06 2.30 2.60 2.75 2.83 2.82 2.91 3.12 3.43 3.45 3.25 3.10 3.15 2.93 2.67 2.41
0.03 0.04 0.05 0.05 0.05 0.04 0.06 0.08 0.14 0.22 0.33 0.73 0.63 0.71 1.14 1.37 1.21 1.16 1.07 1.00 1.07 1.06 1.19 1.40 1.51 1.56 1.58 1.67 1.90 2.13 2.38 2.39 2.50 2.57 2.58 2.64 2.83 2.98 2.82 2.65 2.66 2.56 2.47 2.37
0.12 0.11 0.09 0.06 0.06 0.06 0.08 0.15 0.53 0.94 1.12 1.08 0.66 0.75 1.21 1.11 0.95 0.96 0.98 1.01 1.06 1.03 1.02 1.20 1.38 1.39 1.52 1.63 1.75 1.89 2.05 2.15 2.17 2.21 2.14 2.10 2.20 2.35 2.35 2.26 2.28 2.21 2.04 1.94
0.22 0.24 0.17 0.09 0.08 0.10 0.14 0.23 0.69 0.99 0.98 0.95 0.80 1.18 1.38 0.97 0.89 0.87 0.79 0.79 0.82 0.77 0.75 0.85 1.02 1.14 1.29 1.44 1.52 1.64 1.77 1.91 1.99 2.05 2.06 2.02 1.99 2.07 2.16 2.25 2.12 2.05 1.82 1.66
0.15 0.16 0.12 0.09 0.07 0.11 0.22 0.29 0.33 0.55 0.66 1.00 1.19 1.41 1.23 0.95 0.96 0.90 0.89 0.82 0.80 0.74 0.70 0.72 0.82 0.93 0.99 1.10 1.21 1.33 1.48 1.64 1.82 1.82 1.94 1.92 1.80 1.88 2.07 2.18 2.09 1.99 1.95 1.82
0.08 0.10 0.11 0.09 0.11 0.15 0.18 0.22 0.30 0.46 0.70 1.01 1.21 1.55 1.71 1.45 1.28 1.07 1.10 0.98 0.86 0.74 0.67 0.68 0.69 0.71 0.70 0.82 1.10 1.24 1.40 1.55 1.61 1.59 1.56 1.49 1.56 1.73 1.89 1.88 1.81 1.94 2.01 2.01
0.07 0.08 0.11 0.14 0.15 0.17 0.20 0.23 0.30 0.39 0.49 0.78 1.21 1.40 1.17 1.21 1.20 1.18 1.05 0.97 0.92 0.81 0.66 0.64 0.70 0.72 0.72 0.81 1.02 1.06 1.12 1.33 1.40 1.39 1.30 1.30 1.38 1.49 1.57 1.58 1.60 1.76 1.85 1.91
0.09 0.10 0.16 0.21 0.18 0.16 0.19 0.22 0.32 0.49 0.54 0.65 0.96 1.18 0.83 0.91 0.93 0.84 0.79 0.79 0.70 0.68 0.61 0.60 0.69 0.81 0.92 1.08 1.02 0.91 0.92 0.99 1.14 1.21 1.21 1.25 1.28 1.26 1.24 1.26 1.39 1.51 1.57 1.60
0.13 0.17 0.30 0.50 0.51 0.31 0.25 0.21 0.25 0.33 0.43 0.51 0.81 1.09 0.90 0.88 0.95 0.87 0.83 0.82 0.73 0.67 0.64 0.67 0.77 0.82 0.84 0.98 1.09 0.94 0.92 0.99 1.12 1.18 1.27 1.36 1.36 1.26 1.16 1.18 1.29 1.30 1.26 1.29
0.12 0.14 0.27 0.51 0.46 0.35 0.31 0.27 0.29 0.35 0.45 0.49 0.56 0.83 0.97 0.97 0.93 0.90 0.87 0.78 0.77 0.72 0.62 0.66 0.80 0.95 0.95 0.93 1.03 0.96 0.94 1.01 1.15 1.35 1.55 1.58 1.50 1.40 1.30 1.21 1.21 1.21 1.17 1.25
0.13 0.12 0.14 0.19 0.25 0.32 0.34 0.28 0.27 0.29 0.33 0.49 0.46 0.60 0.86 0.94 0.86 0.88 0.91 0.70 0.63 0.72 0.69 0.64 0.75 0.93 1.02 1.04 1.05 1.01 1.05 1.10 1.24 1.47 1.61 1.64 1.62 1.55 1.47 1.35 1.27 1.22 1.23 1.23
0.21 0.19 0.20 0.21 0.28 0.34 0.34 0.29 0.24 0.21 0.22 0.29 0.37 0.58 0.68 0.65 0.72 0.75 0.72 0.70 0.71 0.81 0.78 0.72 0.73 0.80 0.97 1.05 1.10 1.14 1.23 1.27 1.32 1.33 1.37 1.49 1.58 1.58 1.52 1.37 1.28 1.31 1.32 1.29
0.35 0.35 0.31 0.32 0.32 0.39 0.43 0.34 0.28 0.25 0.23 0.30 0.49 0.71 0.69 0.66 0.72 0.67 0.60 0.62 0.77 0.83 0.74 0.70 0.74 0.77 0.85 0.88 0.97 1.21 1.24 1.21 1.23 1.29 1.37 1.47 1.52 1.50 1.46 1.32 1.30 1.32 1.32 1.34
0.33 0.42 0.42 0.43 0.54 0.68 0.46 0.28 0.28 0.31 0.30 0.31 0.43 0.54 0.59 0.57 0.60 0.61 0.56 0.57 0.59 0.65 0.63 0.65 0.72 0.79 0.81 0.78 0.77 0.87 1.01 1.12 1.19 1.24 1.32 1.40 1.44 1.52 1.58 1.50 1.39 1.39 1.40 1.36
0.30 0.45 0.51 0.57 0.72 0.60 0.40 0.35 0.37 0.42 0.47 0.40 0.43 0.49 0.57 0.60 0.63 0.72 0.63 0.58 0.53 0.51 0.55 0.68 0.80 0.78 0.77 0.77 0.77 0.87 1.01 1.13 1.27 1.32 1.35 1.36 1.45 1.61 1.65 1.54 1.48 1.50 1.47 1.38
0.36 0.45 0.63 0.70 0.88 0.81 0.61 0.45 0.40 0.50 0.89 0.62 0.51 0.52 0.61 0.67 0.78 0.87 0.69 0.62 0.59 0.60 0.65 0.64 0.65 0.64 0.69 0.80 0.90 0.98 1.13 1.31 1.39 1.40 1.46 1.54 1.58 1.69 1.80 1.82 1.76 1.67 1.63 1.55
0.77 0.73 0.70 0.82 0.97 0.83 0.60 0.49 0.55 0.95 1.17 0.79 0.67 0.64 0.69 0.80 0.80 0.77 0.70 0.61 0.60 0.63 0.66 0.67 0.72 0.74 0.78 0.82 0.99 1.19 1.29 1.37 1.41 1.43 1.45 1.62 1.72 1.85 2.02 2.20 2.11 2.03 1.94 1.91
1.04 1.09 1.05 1.08 1.24 1.22 0.74 0.61 0.91 1.12 0.90 0.85 0.84 0.82 0.79 0.72 0.66 0.65 0.69 0.65 0.60 0.62 0.73 0.80 0.90 0.95 0.87 0.88 1.02 1.20 1.31 1.37 1.50 1.53 1.58 1.65 1.80 1.88 2.06 2.44 2.44 2.45 2.44 2.27
1.15 1.28 1.39 1.37 1.39 1.13 0.98 1.03 1.06 1.10 0.99 0.92 0.78 0.71 0.69 0.70 0.69 0.73 0.83 0.83 0.73 0.68 0.75 0.82 0.95 1.03 1.05 1.13 1.26 1.43 1.48 1.54 1.62 1.74 1.86 1.92 2.01 2.18 2.28 2.44 2.49 2.53 2.50 2.39
1.11 1.03 1.37 1.52 1.41 1.28 1.15 1.05 1.09 1.24 1.13 0.94 0.79 0.74 0.75 0.75 0.69 0.67 0.72 0.79 0.79 0.77 0.84 0.92 1.00 1.21 1.33 1.38 1.49 1.62 1.72 1.80 1.92 2.04 2.12 2.18 2.23 2.24 2.29 2.45 2.47 2.48 2.47 2.36
1.07 1.06 1.39 1.64 1.58 1.56 1.35 1.05 0.99 1.02 0.96 0.83 0.83 0.81 0.82 0.87 0.81 0.73 0.70 0.72 0.79 0.91 1.02 1.09 1.21 1.34 1.38 1.47 1.57 1.70 1.90 2.07 2.14 2.14 2.13 2.11 2.16 2.31 2.39 2.38 2.38 2.44 2.50 2.49
1.25 1.24 1.53 1.82 1.60 1.58 1.46 1.18 1.02 0.91 0.83 0.81 0.95 0.98 0.90 0.90 0.92 0.87 0.85 0.86 0.90 0.99 1.13 1.24 1.35 1.44 1.48 1.62 1.79 1.91 2.08 2.29 2.44 2.39 2.29 2.29 2.32 2.39 2.40 2.36 2.29 2.35 2.30 2.25